Location: Hastringsfeld
(50.9620°N, 10.4787°E)
Time: 12:14:41
(UTC+00:00)

Envisat - Pass Details

Date: 26 September 2023
Orbit: 762 x 764 km, 98.3° (Epoch: 10 December)

Event Time Altitude Azimuth Distance (km) Brightness Sun altitude
Rises 03:47:52 0° 10° (N) 3,245 6.6 -13.6°
Reaches altitude 10° 03:50:15 10° 5° (N) 2,315 5.8 -13.2°
Maximum altitude 03:55:08 49° 292° (WNW) 990 3.3 -12.5°
Drops below altitude 10° 04:00:00 10° 219° (SW) 2,299 5.0 -11.8°
Enters shadow 04:00:24 - 218° (SW) 2,456 5.2 -11.7°
